Wind_Speed
23 19 18 15 15 13 13 12 12 11 13 14 13 11 11 9 13 17 19 19 16 17 17 14 14 10 10 6 5 7 5 8 13 18 17 17 19 21 21 22 24 24 23 24 25
17 17 16 16 13 14 13 12 13 12 13 14 14 11 10 9 11 13 14 12 16 17 16 15 12 10 9 10 5 14 4 4 10 15 15 17 18 21 20 21 23 23 23 22 22
21 20 19 18 17 15 14 13 14 12 14 13 13 11 10 10 9 9 8 11 12 12 12 12 13 13 9 9 4 10 8 5 4 9 13 15 15 16 19 21 22 21 22 22 21
22 22 22 20 18 17 16 14 14 13 13 13 13 12 12 11 11 10 9 11 11 11 11 9 12 11 8 8 4 10 13 8 4 7 11 11 14 15 15 18 19 19 20 22 23
24 23 22 19 18 16 15 15 14 14 14 13 13 13 14 13 13 12 11 12 13 13 10 5 6 7 6 8 2 7 8 6 3 7 9 14 14 16 14 14 16 16 19 23 25
26 24 23 22 20 18 17 14 14 15 15 14 14 15 15 15 13 12 12 14 15 15 11 8 7 5 5 6 4 2 3 6 4 6 6 11 10 10 13 9 14 15 16 18 25
31 28 25 24 21 21 21 19 15 15 15 15 15 16 17 16 15 14 14 14 15 16 14 12 10 10 8 7 4 4 6 6 3 4 3 5 6 9 10 9 9 12 13 15 21
32 31 30 27 25 23 24 22 19 17 16 17 17 18 18 19 17 16 16 15 15 15 17 16 14 11 13 11 7 7 10 8 7 5 4 1 4 6 7 7 5 9 12 16 19
33 32 31 30 27 26 24 25 24 20 18 18 18 19 20 20 19 17 16 15 14 15 15 16 14 10 12 13 13 15 12 9 6 6 6 8 5 5 8 6 3 7 14 18 21
33 33 33 31 28 28 25 25 23 23 18 18 19 20 21 20 20 19 17 16 15 14 14 14 12 11 12 11 17 19 14 13 14 14 12 10 6 6 10 11 11 11 12 19 25
33 33 32 32 32 31 28 27 23 22 22 20 20 20 20 22 23 22 20 18 16 16 16 15 11 12 15 15 18 20 16 15 16 13 9 8 7 9 13 13 16 18 16 20 26
36 35 33 32 33 33 30 28 26 24 24 22 20 20 20 22 23 24 22 20 19 19 17 15 14 19 18 19 16 22 20 17 18 18 15 12 9 11 14 16 19 19 20 21 27
37 37 37 36 36 34 31 29 28 27 27 26 21 20 22 22 23 24 23 23 21 19 17 15 20 22 23 23 19 22 21 19 20 23 20 17 16 13 13 16 23 22 22 26 21
38 38 38 38 39 37 34 30 30 30 29 26 26 23 22 23 23 24 24 22 22 21 19 21 23 23 23 23 22 21 22 23 22 22 23 19 21 21 23 24 25 23 19 13 14
36 36 37 37 38 37 35 37 36 31 29 29 29 26 23 22 24 25 24 23 22 22 20 23 22 22 23 23 22 22 21 23 24 23 22 23 24 24 21 20 19 18 20 18 22
35 35 37 37 38 37 35 38 37 35 31 29 28 28 26 22 24 26 26 26 26 25 23 24 22 21 22 19 18 19 20 22 21 15 19 21 21 22 22 20 18 20 25 23 25
28 30 31 32 32 33 36 39 38 39 33 33 29 29 28 27 26 26 26 25 24 25 22 23 22 21 21 15 16 20 18 20 18 16 18 20 18 20 21 20 20 20 22 26 27
27 29 30 30 28 28 33 39 42 35 34 34 31 27 28 28 29 26 28 26 25 25 24 25 23 23 19 15 21 22 22 21 17 15 17 17 17 18 20 20 19 19 21 25 27
31 31 30 26 27 28 30 36 40 37 35 33 31 30 29 30 31 31 27 26 26 25 23 23 23 23 22 20 23 19 23 20 17 17 16 14 15 17 17 18 19 20 22 24 26
31 33 32 30 28 29 30 29 33 38 37 34 34 34 32 32 32 33 31 27 26 24 24 24 22 24 24 25 25 22 22 19 17 18 15 15 17 18 20 21 20 19 19 23 24
30 31 36 34 33 32 29 24 26 35 39 38 37 36 35 35 34 32 34 30 28 27 26 24 24 26 26 29 25 21 20 22 22 19 15 15 16 19 21 21 22 17 17 20 23
31 31 33 36 36 34 29 23 25 32 39 42 40 38 37 35 35 34 35 30 27 30 32 27 27 28 27 27 23 23 20 22 21 17 17 19 15 18 22 22 17 13 17 18 22
33 34 33 35 36 35 33 28 28 30 37 43 42 41 38 36 34 34 32 32 33 32 31 30 30 29 27 24 24 26 25 21 18 17 17 14 12 14 17 23 20 25 27 22 21
36 36 35 35 36 36 35 33 29 32 32 39 42 43 40 39 36 35 32 26 31 34 29 32 32 32 29 24 26 26 27 26 23 19 16 17 15 16 18 19 21 25 28 28 27
32 35 35 36 38 36 35 36 32 31 32 34 41 43 41 41 36 33 30 27 29 29 27 30 31 31 32 27 26 25 25 26 25 26 25 21 21 22 21 22 21 23 28 30 33
30 30 34 37 37 34 34 35 35 36 36 34 39 45 43 42 39 34 33 31 27 29 29 31 29 28 31 34 31 28 28 26 27 26 28 26 27 29 24 21 20 24 27 32 33
28 30 32 34 36 33 33 35 38 39 36 34 35 47 45 42 42 37 37 33 32 30 28 27 26 26 24 29 32 34 33 32 30 28 27 31 30 25 21 21 22 25 25 26 32
Wind_Direction
236 245 253 250 247 251 246 252 263 259 239 236 248 247 243 237 210 204 210 217 205 209 222 207 211 176 195 191 148 142 100 79 75 75 85 66 59 48 33 22 19 22 24 19 19
230 238 236 238 232 246 240 246 251 245 241 229 245 239 232 227 210 202 208 206 207 212 222 194 204 184 174 149 123 167 151 67 64 64 66 72 66 41 30 22 18 15 17 17 14
231 229 230 234 227 238 235 241 243 239 235 229 231 227 221 215 208 204 190 187 198 205 215 206 178 187 170 158 184 185 176 175 109 79 71 80 53 46 39 27 22 15 16 13 16
226 226 227 231 230 231 232 237 239 237 228 223 222 221 214 212 213 208 190 188 201 201 213 224 162 187 163 116 188 199 209 215 133 80 78 74 70 54 48 37 25 20 18 13 13
227 231 228 229 225 224 225 233 237 232 230 221 216 215 214 210 212 208 199 195 203 211 213 209 137 174 136 123 105 248 259 253 122 90 78 88 80 58 38 49 33 26 24 17 12
226 226 229 228 219 223 222 227 232 231 230 227 217 216 214 213 209 208 203 200 205 212 217 214 148 174 146 136 89 122 212 239 244 106 110 89 73 61 34 34 48 31 29 22 23
228 228 230 230 224 224 225 227 235 238 232 229 222 215 216 211 206 204 203 205 206 213 215 222 203 185 170 150 133 284 212 183 167 143 121 73 45 42 36 43 58 30 21 13 19
229 230 230 231 229 228 230 233 229 238 236 234 225 219 215 215 209 203 201 202 207 213 220 227 227 205 193 186 182 245 227 207 225 210 231 165 355 14 6 26 17 11 12 6 7
229 229 231 232 232 231 232 236 236 232 235 233 230 222 217 218 213 215 209 204 208 214 218 226 235 229 204 194 186 210 213 204 228 256 275 284 279 305 309 339 0 6 4 355 346
231 231 232 232 232 233 232 234 233 225 233 235 233 228 220 220 218 218 221 213 211 214 221 224 221 220 216 201 199 211 222 222 235 236 261 269 254 279 295 330 325 343 352 342 337
232 232 233 233 233 234 233 233 231 225 233 234 232 231 223 223 218 218 215 221 214 217 220 222 213 222 219 213 215 213 227 232 245 248 252 271 282 298 315 324 327 329 341 332 320
232 233 233 233 235 235 234 232 230 223 225 229 229 232 227 226 223 225 220 215 220 220 219 219 206 218 225 230 226 219 229 247 252 270 277 269 271 290 306 321 322 322 336 314 312
233 234 234 233 235 234 234 235 232 228 223 227 230 231 226 227 228 222 228 224 221 224 224 216 216 219 218 233 232 229 233 247 258 273 276 276 282 287 295 313 313 310 316 310 311
233 233 234 234 235 235 234 234 232 230 226 224 226 227 226 222 227 224 225 226 224 224 224 219 222 229 233 234 238 238 231 249 260 272 268 284 283 284 294 294 297 286 293 289 287
234 234 234 233 234 235 232 233 233 230 229 223 228 227 229 226 223 228 228 225 226 225 224 232 229 234 241 240 244 243 244 247 260 272 272 270 279 287 294 293 292 294 303 310 326
235 235 236 235 235 233 230 232 231 231 229 228 225 227 226 224 225 229 225 226 227 228 225 230 233 233 241 248 252 251 245 261 267 274 261 263 272 276 286 291 296 300 317 326 332
232 234 234 235 235 234 231 230 230 228 227 228 228 224 224 219 220 223 227 227 232 234 230 235 237 236 234 239 247 252 252 257 252 251 262 268 273 281 287 288 296 310 312 311 317
233 232 232 232 232 233 232 230 229 225 226 228 229 226 228 224 224 217 221 224 226 231 225 231 233 237 235 234 243 252 248 249 251 250 259 273 279 282 292 303 309 316 318 320 323
234 234 234 233 231 233 236 234 229 225 223 225 226 226 226 228 227 224 221 221 223 226 229 229 232 237 240 230 236 237 240 239 246 246 252 263 273 287 296 307 315 321 323 323 332
235 232 235 234 231 234 237 239 232 226 222 220 222 225 223 227 228 228 227 222 225 227 226 226 222 229 232 228 232 227 233 236 243 250 253 267 283 298 305 315 325 327 322 325 328
237 239 234 232 232 235 236 238 233 225 220 219 221 224 223 225 229 231 229 228 226 227 229 226 229 226 227 227 225 235 236 239 242 250 264 272 284 295 310 324 329 320 331 344 342
239 235 235 232 231 234 234 231 228 221 218 220 218 224 223 223 228 231 233 230 226 228 229 227 229 224 220 224 228 220 224 236 245 257 265 273 295 309 327 337 352 341 347 341 345
240 236 231 230 233 232 229 226 221 216 218 221 217 219 224 225 225 229 232 231 229 230 231 225 221 214 215 220 226 235 238 240 251 255 262 285 304 326 322 322 337 326 324 327 335
240 240 234 230 229 231 226 222 223 219 223 223 219 217 222 225 224 227 232 234 227 226 226 228 219 214 219 220 228 235 241 245 251 251 260 281 297 318 314 322 320 329 325 324 326
244 238 236 232 228 226 228 222 223 225 227 229 225 218 219 223 225 224 223 226 221 220 219 228 228 217 210 213 226 238 244 244 253 263 269 284 291 301 304 312 316 319 316 315 321
245 236 234 233 230 223 221 220 219 223 225 230 224 221 216 219 220 219 221 222 216 214 217 218 221 224 216 215 221 233 243 252 253 259 271 275 281 293 292 292 303 305 312 310 315
240 235 232 231 228 223 216 214 216 220 224 232 228 223 216 214 215 217 222 221 217 216 219 223 226 229 228 230 229 233 240 248 256 266 275 278 280 281 288 287 293 301 311 310 310
Height
5886 5888 5890 5892 5893 5896 5897 5898 5899 5898 5900 5901 5903 5903 5905 5906 5907 5908 5910 5914 5917 5920 5920 5924 5926 5928 5929 5930 5931 5931 5932 5932 5932 5931 5930 5928 5927 5928 5927 5925 5923 5921 5919 5917 5914
5884 5886 5888 5890 5891 5894 5895 5897 5898 5897 5899 5899 5901 5901 5904 5905 5906 5908 5911 5913 5915 5918 5920 5923 5924 5927 5927 5930 5931 5932 5932 5932 5933 5932 5932 5931 5931 5930 5929 5927 5926 5923 5921 5918 5917
5881 5883 5886 5888 5891 5892 5894 5895 5896 5896 5897 5898 5900 5901 5903 5905 5906 5907 5910 5912 5914 5917 5918 5921 5924 5926 5927 5930 5931 5932 5933 5933 5934 5933 5934 5933 5932 5932 5930 5929 5928 5925 5922 5920 5918
5878 5881 5883 5885 5888 5890 5892 5894 5895 5895 5896 5897 5899 5901 5902 5904 5907 5907 5909 5912 5914 5917 5919 5920 5926 5927 5929 5931 5932 5933 5933 5933 5934 5934 5935 5934 5934 5933 5932 5932 5930 5927 5924 5923 5919
5875 5878 5880 5883 5886 5888 5890 5892 5893 5894 5895 5896 5898 5900 5902 5904 5906 5907 5909 5911 5914 5916 5919 5922 5926 5928 5930 5930 5932 5933 5934 5934 5935 5935 5934 5934 5934 5934 5934 5933 5932 5929 5926 5923 5921
5871 5874 5877 5880 5883 5885 5887 5889 5891 5892 5894 5895 5897 5899 5901 5904 5905 5907 5908 5911 5913 5916 5918 5922 5926 5927 5929 5931 5933 5934 5934 5935 5934 5935 5935 5935 5935 5934 5934 5935 5934 5931 5928 5926 5922
5867 5871 5874 5876 5880 5882 5884 5886 5888 5890 5892 5893 5895 5898 5900 5903 5904 5906 5908 5910 5912 5914 5917 5920 5924 5927 5928 5930 5932 5933 5934 5934 5934 5934 5935 5935 5936 5935 5935 5935 5934 5933 5929 5926 5923
5862 5866 5870 5873 5876 5879 5881 5882 5885 5887 5889 5892 5894 5897 5899 5901 5903 5906 5908 5910 5912 5914 5917 5919 5921 5925 5927 5928 5930 5931 5933 5932 5933 5934 5934 5935 5936 5936 5935 5935 5935 5934 5930 5926 5922
5857 5861 5865 5868 5871 5874 5877 5879 5882 5885 5888 5890 5892 5895 5897 5900 5903 5905 5907 5910 5911 5913 5915 5918 5920 5924 5925 5927 5928 5929 5931 5931 5932 5932 5934 5935 5936 5935 5935 5935 5934 5933 5930 5926 5922
5852 5856 5860 5864 5866 5869 5873 5875 5879 5882 5886 5887 5889 5893 5896 5898 5901 5904 5907 5909 5911 5913 5915 5917 5919 5921 5923 5925 5926 5927 5930 5930 5931 5932 5933 5934 5933 5933 5934 5933 5932 5932 5929 5926 5922
5846 5850 5854 5858 5861 5865 5870 5873 5877 5880 5882 5884 5886 5889 5892 5894 5897 5901 5904 5907 5910 5912 5914 5916 5919 5920 5920 5922 5924 5926 5927 5928 5929 5930 5931 5931 5932 5931 5930 5930 5930 5929 5928 5925 5920
5840 5844 5849 5853 5856 5860 5865 5868 5873 5876 5877 5880 5882 5885 5888 5891 5895 5897 5901 5904 5907 5909 5911 5915 5917 5916 5919 5920 5922 5924 5925 5927 5928 5928 5929 5929 5931 5930 5929 5928 5928 5926 5926 5924 5920
5834 5839 5843 5847 5849 5855 5859 5864 5867 5869 5873 5877 5879 5882 5885 5888 5891 5894 5897 5900 5903 5907 5910 5913 5914 5914 5915 5917 5920 5922 5924 5925 5926 5926 5927 5927 5928 5929 5928 5926 5926 5925 5925 5924 5920
5828 5833 5836 5841 5845 5848 5854 5858 5861 5864 5869 5874 5876 5878 5881 5883 5886 5889 5893 5898 5900 5903 5906 5909 5910 5911 5913 5916 5919 5920 5923 5923 5923 5925 5925 5925 5924 5925 5925 5925 5924 5922 5921 5918 5914
5821 5825 5829 5834 5837 5842 5848 5851 5854 5860 5863 5869 5870 5874 5877 5882 5883 5886 5889 5894 5897 5899 5903 5906 5908 5910 5912 5914 5916 5918 5919 5920 5921 5922 5922 5922 5922 5922 5920 5921 5921 5920 5919 5916 5913
5814 5818 5821 5826 5830 5835 5840 5842 5848 5854 5857 5861 5865 5868 5873 5877 5878 5881 5885 5888 5891 5895 5898 5901 5904 5907 5909 5911 5913 5915 5916 5917 5919 5919 5919 5919 5920 5919 5918 5918 5919 5918 5916 5912 5911
5808 5811 5815 5818 5823 5827 5831 5835 5840 5843 5854 5857 5860 5864 5868 5871 5873 5877 5881 5885 5889 5892 5896 5898 5901 5903 5905 5908 5910 5911 5912 5914 5915 5915 5915 5915 5917 5916 5915 5915 5916 5915 5913 5908 5905
5802 5805 5808 5812 5817 5819 5823 5827 5831 5840 5845 5850 5855 5860 5864 5867 5870 5873 5876 5880 5884 5888 5892 5894 5897 5899 5903 5905 5906 5908 5910 5910 5910 5912 5913 5912 5912 5912 5911 5911 5912 5912 5909 5906 5902
5796 5799 5802 5807 5810 5812 5815 5818 5825 5833 5839 5845 5850 5854 5857 5861 5865 5869 5872 5876 5879 5884 5888 5891 5893 5895 5898 5901 5902 5903 5905 5906 5907 5908 5909 5909 5909 5910 5909 5909 5909 5909 5907 5901 5898
5788 5792 5796 5800 5803 5805 5808 5813 5819 5825 5832 5838 5842 5847 5852 5855 5859 5863 5868 5873 5876 5879 5882 5886 5889 5892 5893 5895 5898 5899 5902 5903 5903 5904 5906 5906 5906 5906 5905 5906 5906 5906 5903 5899 5896
5781 5785 5788 5793 5797 5799 5803 5809 5813 5817 5824 5830 5834 5839 5845 5848 5853 5857 5862 5869 5872 5874 5877 5881 5884 5888 5888 5890 5894 5897 5898 5899 5900 5901 5902 5903 5904 5902 5903 5902 5902 5901 5899 5897 5894
5774 5777 5781 5786 5790 5794 5799 5803 5806 5810 5815 5821 5826 5831 5837 5842 5847 5851 5857 5863 5867 5870 5872 5876 5879 5881 5883 5886 5889 5892 5893 5895 5897 5900 5899 5900 5903 5901 5899 5900 5900 5896 5896 5894 5893
5765 5769 5773 5777 5781 5787 5793 5797 5800 5804 5808 5812 5818 5824 5830 5836 5842 5845 5851 5856 5861 5864 5867 5871 5874 5876 5879 5883 5885 5887 5890 5892 5894 5895 5896 5898 5899 5898 5898 5896 5896 5896 5894 5894 5890
5757 5760 5765 5769 5773 5779 5785 5791 5796 5799 5802 5805 5812 5817 5823 5829 5835 5840 5846 5851 5855 5858 5862 5865 5867 5872 5876 5881 5883 5884 5886 5888 5890 5891 5893 5893 5895 5895 5894 5893 5892 5891 5890 5887 5887
5747 5752 5756 5761 5765 5771 5779 5785 5790 5794 5796 5799 5805 5811 5818 5823 5829 5835 5841 5847 5850 5853 5857 5860 5863 5868 5872 5876 5878 5880 5882 5884 5885 5887 5888 5889 5890 5892 5892 5891 5888 5887 5885 5883 5879
5739 5744 5747 5753 5758 5764 5770 5776 5781 5785 5788 5792 5799 5804 5811 5818 5824 5831 5836 5842 5846 5850 5853 5856 5859 5863 5867 5871 5874 5876 5877 5879 5880 5881 5883 5885 5886 5888 5888 5888 5885 5881 5880 5878 5874
5733 5737 5740 5745 5750 5757 5761 5768 5772 5777 5783 5786 5793 5798 5806 5812 5819 5826 5830 5836 5841 5845 5850 5854 5857 5860 5862 5866 5870 5872 5873 5874 5875 5877 5878 5879 5881 5882 5883 5882 5882 5880 5877 5875 5869